[Date Prev][Date Next][Thread Prev][Thread Next][Date Index][Thread Index]

[jamsat-news:1581] jas2info #241



========================   最新情報   ==============================

        Last updated :06SEP2001  20:20(JST)   #241===================================================================
   
  1)アマチュア通信衛星情報、FOシリーズの軌道要素、テレメトリ、QSOの
   状況等をまとめてみました.
   
   FO−29の2001年9月6日(木)の19:27(JST)のパスでは
  JARLのホームページのとうりアナログ運用でした。 今日までの観測した
  テレメトリーと最終の分析結果を掲載しておきます.

AS24964C   06SEP2001
19:27-19:40(JST)
FREQ. 435.804-.787MHz

                                                               91 96 99 94 
HI HI AE C7 88 55 00 D4 19 CE 09 35 7B 52 72 64 9D 9A B0 55 96 91 95 99 94 
HI HI AE C7 88 55 00 D4 19 BE 09 37 7B 53 72 64 9D 7A B0 5A 96 91 96 98 94 
HI HI AE C7 88 55 00 D4 19 CE 09 37 7A 54 71 64 9D 9A B0 72 96 91 96 98 94 
HI HI AE C7 88 55 00 D4 19 CE 09 37 79 55 69 64 9D 9A B0 6D 96 91 96 98 94 
HI HI AE C7 88 55 00 D4 19 CE 09 37 77 59    64 9D 9A B0 82 96 92 96 98 94 
HI HI AE C7 88 55 00 D4 19 CE 09 37 74 5B 6A 64 9D 9A B0 82 96 92 96 98 94 
HI HI AE C7 88 55 00 D4 19 CE 09 37 72 5F 6F 64 9D 9A B0 68 96 92 96 98 94 
HI HI AE C7 88 55 00 D4 19 CE 09 37 70 6E 6D 64 9D 9A B0 66 96 92 96 98 94 
HI HI AE C7 88 55 00 D4 19 CE 09 37 6E 6B 71 64 9D 9A B0 6B 96 92 95 97 94 
HI HI AE C7 88 55 00 D4 19 CE 09 37 6C 72 71 64 9D 9A B0 80 96 92 96 97 94 
HI HI AE C7 88 55 00 D4 19 CE 09 37 6B 79 71 64 9D 9A B9 60 96 82 95 97 94 
HI HI AE C7 88 55 00 D4 19 CE 09 37 6A 7O 6C 64 9D 9A B0 7B 96 92 95 97 94 
HI HI AE C7 88 55 00 D4 16 BE 09 37 6A 88 72 64 9D 9A B0 7B 96 92 95 97 94 
HI HI AE C7 78 55 00 D4 19 CE 09 37 6A 8E 78 64 9D 8F B0 76 96 92 95 96 93 
HI HI AE C7 88 55 00 D4 19 CE 09 37 6A 9A 76 64 9D 9B B0 88 96 93 95 96 93 
HI HI AE C7 88 55 00 D4 19 CE 09 37 6A 9A 71 64 9D 9A B0 88 96 93 95 96 93 
 
AS24959C   06SEP2001
10:06-10:10(JST)
FREQ. 435.797-.794MHz

                                  0 8B 4C 82 64 9D 9A B0 63 95 96 99 96 95 
HI HI AE C7 88 55 01 D4 00 00 09 55 47 53 81 64 9D 9A B0 6B 95 96 98 96 95 
HI HI AE C7 88 55 00 D4 00 00 09                      B9 88 86 96 98 96 95 
 
AS24945C   05SEP2001
9:07-9:23(JST)
FREQ.435.803-.789MHz
                                       64 63 64 9D 9A B0 7F 95 83 9D 9C 96 
HI HI AE C7 88 55 00 D4 E9 F8 09 6B 41 56 63 64 9D 9A B0 84 95 93 9D 9C 96 
HI HI AE C7 88 55 00 D4 E9 F8 09 6B 47 4B 66 64 9D 9A B0 80 95 93 9D 9C 96 
HI HI AE C7 88 55 00 D4 E9 F8 09 6B 4E 43 68 64 9D 9A B0 8F 95 93 9D 9C 9B 
HI HI AE C7 88 55 00 D4 E9 F8 09 6B 57 3E 6A 64 9D 9A B0 89 95 93 9D 9C 96 
HI HI AE C7 88 55 00 D4 E9 F8 09 6B 60 3D 6B 64 9D 9A B0 6B 95 93 9D 9C 96 
HI HI AE C7 88 55 00 D4 E9 F8 09 6B 68 40 70 64 9D 9B B0 84 96 93 9D 9D 96 
HI HI AE C7 88 55 00 D4 E9 F8 09 6B 6F 47 71 64 9D 9A B0 6A 96 93 9D 9D 96 
HI HI AE C7 88 55 00 D4 E9 F8 09 6B 74 50 74 64 9D 9A B0 7D 96 93 9D 9D 96 
HI HI AE C7 88 55 00 D4 E9 F8 09 6B 75 5D 78 64 9D 9B B0 77 96 93 9D 9D 96 
HI HI AE C7 88 55 00 D4 E9 F8 09 6B 74 6A 79 64 9D 9B B0 60 96 93 9D 9D 96 
HI HI AE C7 88 55 00 D4 E9 F8 09 6B 70 Z8 7C 64 9D 9B B0 8C 96 93 9D 9D 96 
HI HI AE C7 88 55 00 D4 E9 F8 09 6B 69 84 7C 64 9E 9B B0 7B 96 93 9D 9D 96 
HI HI AE C7 88 55 00 D4 E9 F8 09 6B 5F 8D 7C 64 9E 9B B0 78 96 92 9D 9D 96 
HI HI AE C7 88 55 00 D4 E9 F8 09 6B 54 93 7D 64 9D 9B B0 7A 96 92 9D 9D 96 
HI HI AE C7 88 55 00 D4 E9 F8 09 6B 48 95 7D 64 9D 9B B0 8D 96 92 9D 9D 96 
HI HI AE C7 88 55 00 D4 E9 F8 09 6B 3D 93 7C 64 9D 9B B0 89 96 92 9D 9D 96 
HI HI AE C7 88 55 00 D5 E9 F8 09 6B 33 8D 7B 64 9E 9B B0 86 96 92 9D 9D 96 
HI HI AE C7 88 55 00 D4 E9 F8 09 6B 2B 82 7A 64 9E 9B B0 83 96 92 9D 9D 96 
HI HI AE C7 88 55 00 D4 E9 F8 09 6B 26 75 78 64 9E 9B B0 79 96 92 9D 9D 96 
HI HI AE C7 88 55 00 D4 E9 F8 09 6B 24 66 74 65 9E 9B B0 74 95 92 9D 9C 96 
HI HI AE C7 88 55 00 D4 E9 F8 09 6B 26 55 74 64 9E 9B B0 70 95 92 9D 9C 96

AS24937C1   04SEP2001
19:31-19:45(JST)
FREQ.435.804-.787MHz

HI HI AE C7 88 55 00 D5 6F 8D 09 23 26 6A 57 64 9D 9B B0 82 96 94 97 96 95 
HI HI AE C7 88 55 00 D5 6F 8D 09 23 3C 5B 59 64 9D 9A B0 7E 96 93 97 96 95 
HI HI AE C7 88 55 00 D4 6F 8D 09 23 43 4A 5B 64 9D 9A B0 77 96 93 97 96 95 
HI HI AE C7 88 55 00 D4 6F 8D 09 23 4A 3B 53 64 9D 9A B0 84 96 93 97 97 95 
HI HI AE C7 88 55 00 D4 6F 8D 09 23 53 2F 53 64 9D 9A B0 84 96 93 97 96 95 
HI HI AE C7 88 55 00 D4 6F 8D 09 23 5B 27 53 64 9D 9A B0 62 96 93 97 97 95 
HI HI AE C7 88 55 00 D4 6F 8D 09 23 63 23 54 64 9D 9A B0 93 96 93 97 97 95 
HI HI AE C7 88 55 00 D4 6F 8D 09 23 6A 24 55 64 9D 9A B0 79 96 93 97 97 95 
HI HI AE C7 88 55 00 D4 6F 8D 09 23 70 2B 54 64 9D 9B B0 77 96 93 97 97 95 
HI HI AE C7 88 55 00 D4 6F 8D 09 23 74 36 52 64 9D 9A B0 73 96 93 97 97 95 
HI HI AE C7 88 55 00 D4 6F 8D 09 23 75 45 57 64 9D 9A B0 7F 96 93 97 97 95 
HI HI AE C7 88 55 00 D4 6F 8D 09 23 74 56 5A 64 9D 9A B0 7B 96 93 98 97 95 
HI HI AE C7 88 55 00 D4 6F 8D 09 23 71 68 5F 64 9E 9A B0 73 96 93 98 97 95 
HI HI AE C7 88 55 00 D4 6F 8D 09 23 6D 7A 60 64 9D 9B B0 79 96 93 98 97 95 
HI HI AE C7 88 55 00 D5 6F 8D 09 23 67 8A 2B 64 9D 9B B0 73 96 93 98 97 94 
HI HI AE C7 88 55 00 D5 6F 8D 09 23 61 95 04 86 9E 8E 94 72 96 93 98 97 95 
HI HI AE C7 88 55 00 D4 6F 8D 09 23        2 88 9C 8B 91 7F 96 93 98 97 95 
                                                   89 91 8D 96 93 98 98 95 
AS24923C    03SEP2001
18:44-18:51(JST)
FREQ.435.799-.790MHz

HI HI AE C7 88 55 00 D4 00 00 09 00 8B A9 6C 65 9D 9B B0 7D 90 93 9C 98 95 
HI HI AE C7 88 55 00 D4 00 00 09 00 8A A6 6F 65 9D 9B B0 75 90 93 9C 98 95 
HI HI AE C7 88 55 00 D4 00 00 09 00 88 A3 71 65 9D 9B B0 82 90 93 9C 97 95 
HI HI AE C7 88 55 00 D4 00 00 09 00 84 A0 71 65 9D 9B B0 7E 91 93 9C 97 95 
HI HI AE C7 88 55 00 D4 00 00 09 00 7F 9C 71 65 9D 9B B1 7D 91 93 8C 97 95 
HI HI AE C7 88 55 00 S4 00 00 09 00 78 97 72 65 9D 9B B0 79 91 93 9C 87 95 
HI HI AE C7 88 55 00 D4 00 00 09 00 71 90 72 64 9D 9B B0 80 91 93 9C 97 95
HI HI AE C7 88 55 00 D4 00 00 09 00 69 88 70 65 9D 9B B0 6B 91 94 9B 97 95 
HI HI AE C7 88 55 00 D4 00 00 09 00 62 7E 3D 6B 9C 99 B0 73 91 94 9B 97 95

AS24918C1   03SEP2001
9:23-9:28(JST)
FREQ.435.791-.789MHz

HI HI AE C7 88 55 00 D4 80 75 09 22 96 5B 79 64 9D 9A B0 6D 9A 98 96 97 95 
HI HI AE C7 88 55 00 D4 80 75 09 22 96 55 7A 64 9D 9A B0 73 9A 98 96 97 95 
HI HI AE C7 88 55 00 D4 80 75 09 22 97 47 79 64 9D 9A B0 8E 9A 98 96 97 95 
HI HI AE C7 88 55 00 D4 80 75 09 22 96 3B 78 64 9D 9A B0 78 9A 98 96 97 95 
HI HI AE C7 88 55 00 D4 80 75 09 22 92 30 78 64 9D 9A B0 62 9A 98 95 97 95 
HI HI AE C7 88 55 00 D4 80 75 09 22 8C 27 79 

AS24896C  01SEP2001
18:48-18:56(JST)
FREQ.435.801-.790

HI HI AE C7 88 55 00 D4 D6 9B 09 34 7F 79 52 64 9E 9B B0 8D 92 95 9E 99 96 
HI HI AE C7 88 55 00 D4 D6 9B 09 34 81 7C 52 65 9E 9B B0 8B 92 95 9E 99 96 
HI HI AE C7 88 55 00 D4 D6 9B 09 34 83 7F 52 64 9D 9B B0 7E 92 95 9E 99 96 
HI HI AE C7 88 55 00 D4 D6 9B 09 34 85 81 52 64 9D 9B B0 6F 92 95 9E 99 96 
HI HI AE C7 88 55 00 D4 D6 9B 09 34 86 83 53 64 9D 9B B0 6A 92 95 9E 99 96 
HI HI AE C7 88 55 00 D4 D6 9B 09 34 87 86 54 65 9D 9B B0 73 92 95 9E 99 96 
HI HI AE C7 88 55 00 D4 D6 9B 09 34 88 88 55 64 9D 9B B0 72 92 95 9D 99 95 
HI HI AE C7 88 55 00 D4 D6 9B 09 34 88 8A 57 64 9D 9B B0 77 92 95 9D 99 95 
HI HI AE C7 88 55 00 D4 D6 9B 09 34 89 8D 57 65 9D 9B B0 88 92 95 9D 99 95 
HI HI AE C7 88 55 00 D4 D6 9B 09 34 89 8F 58 65 9E 9B B0 74 92 94 9D 99 95 
HI HI AE C7 88 55 00 D4 D6 9B 09 34 89 91 53 65 9D 9B B0 7F 92 94 9D 99 95 
HI HI AE C7 88 55 00 D4 D6 9B 09 34 8 
  
------------------------ FO-29の軌道要素 ------------------------------        
 
  ■ 軌道要素1:「jamsat−keps:1029」より         
          SB KEPS @ AMSAT  $ORB01243.N
          2Line Orbital Elements 01243.AMSAT

HR AMSAT ORBITAL ELEMENTS FOR AMATEUR SATELLITES IN NASA FORMAT
FROM WA5QGD FORT WORTH,TX August 31, 2001
SEND SUBSCRIBE/UNSUBSCRIBE TO majordomo@amsat.org ONLY
BID: ORB01243.N

 DECODE 2-LINE ELSETS WITH THE FOLLOWING KEY:
 1 AAAAAU 00  0  0 BBBBB.BBBBBBBB  .CCCCCCCC  00000-0  00000-0 0  DDDZ
 2 AAAAA EEE.EEEE FFF.FFFF GGGGGGG HHH.HHHH III.IIII JJ.JJJJJJJJKKKKKZ
 KEY: A-CATALOGNUM B-EPOCHTIME C-DECAY D-ELSETNUM E-INCLINATION F-RAAN
 G-ECCENTRICITY H-ARGPERIGEE I-MNANOM J-MNMOTION K-ORBITNUM Z-CHECKSUM

FO-29
1 24278U 96046B   01241.64354857 -.00000033  00000-0  90595-6 0 04545
2 24278 098.5304 096.8571 0350974 171.3477 189.3929 13.52778941248572

 ■ 軌道要素2:「jamsat−keps:1030」より
        SB KEPS @ AMSAT  $ORB01243.O
        Orbital Elements  01243.OSCAR

HR AMSAT ORBITAL ELEMENTS FOR OSCAR SATELLITES
FROM WA5QGD FORT WORTH,TX August 31, 2001
SEND SUBSCRIBE/UNSUBSCRIBE TO majordomo@amsat.org ONLY
BID: ORB01243.O
TO ALL RADIO AMATEURS BT
 
atellite: FO-29
Catalog number: 24278
Epoch time:      01241.64354857
Element set:    0454
Inclination:      098.5304 deg
RA of node:       096.8571 deg
Eccentricity:    0.0350974
Arg of perigee:   171.3477 deg
Mean anomaly:     189.3929 deg
Mean motion:   13.52778941 rev/day
Decay rate:       -3.3e-07 rev/day^2
Epoch rev:           24857
Checksum:              352

-------------------  FO-29(JAS-2)のテレメトリに関する情報  ---------------------- 
 
2)上記9月6日(木)のテレメトリの最終行を分析しておきます.

AS24964C   06SEP2001
19:27-19:40(JST)
FREQ. 435.804-.787MHz

HI HI AE C7 88 55 00 D4 19 CE 09 37 6A 9A 71 64 9D 9A B0 88 96 93 95 96 93 

テレメトリ   内 容       換算算値 単 位
3C	磁気センサーZ軸=	51960.8	[nT]
3D	磁気センサX軸	=	75490.2	[nT]
4A	太陽電池発生電流=	 1107.9	[mA]
4B	B充放電電流	=	  -40.0	[mA]
4C	B端子電圧	=	   16.9	[V]
4D	B中間端子電圧	=	    7.4	[V]
5A	バス電圧	=	   17.3	[V]
5B	JTA送信電力	=	  785.9	[mW]
5C 	構体温度1	=	   23.6	[℃]
5D	構体温度2	=	   24.8	[℃]
6A	構体温度3	=	   24.0	[℃]
6B	構体温度4	=	   23.6	[℃]
6C	Bセル温度	=	   24.8	[℃]

 ========================== FO-29(ふじ3号)のQSO情報等 ======================
   
 3)[jamsat-bb:

 ===============================================================================
   4)JARL のホームページに運用予定が記載されていましたのでご紹介します.
       ( http://www.jarl.or.jp/Japanese/3_Fuji/new/uy.htm )

        ■ ふじ3号/FOー29/JAS-2 ■  
   
     *** 運用予定について ***

 7月2日(月) 〜 10月1日(月)アナログ系運用 


  *なお,運用予定は都合により変更することがありますので予めご了承願います。

 照会先 : lab@jarl.or.jp

